Location: Gugi
(45.4667°N, 11.1000°E)
Time: 16:52:53
(UTC+00:00)

USA 215 - Pass Details

Date: 17 November 2019
Orbit: 1101 x 1107 km, 123.0° (Epoch: 02 December)

Event Time Altitude Azimuth Distance (km) Brightness Sun altitude
Exits shadow 16:27:25 - 69° (ENE) 3,034 4.9 -7.9°
Reaches altitude 10° 16:27:38 10° 68° (ENE) 2,962 4.8 -7.9°
Maximum altitude 16:33:19 33° 7° (N) 1,753 4.1 -8.8°
Drops below altitude 10° 16:39:00 10° 306° (NW) 2,963 6.1 -9.8°
Sets 16:41:44 0° 298° (WNW) 3,922 6.9 -10.3°
